Content
SEND FEEDBACK

Daily
Averages
Monthly
Summary
Mexico

CANCUN, QUINTANA ROO


Home > North America > Mexico > Quintana Roo
Elevation: 9 meters     Latitude: 21 09N     Longitude: 086 49W

WEATHER
 
SELECT A DAY
Number of Records: 167,932;   Date Range: 1/1/95 - 12/25/14
 
SHARE

PRINT THIS DATA

[ ← Previous Day ]
WEATHER ALMANAC - 3 FEBRUARY, 2013
[ Next Day → ]
[ °F ]   °C
Weather ElementAverageHighLow
Temperature22.3 °C26 °C (11:44 am)19 °C (3:45 am)
Dewpoint17.1 °C21 °C (7:45 am)15 °C (1:42 pm)
Humidity74.2 %100 % (2:46 am)54 % (11:44 am)
Barometer1019 hPa1021.3 hPa (9:44 am)1017.3 hPa (2:46 am)
Wind Speed10.1 km/h24.1 km/h (10:44 am)
Wind Gust33.3 km/h (1:42 pm)
Weather ElementAverage
Visibility11.1 km
Wind DirectionESE (98.7 °)

Weather ElementTotal
Precipitation---
Cooling Degree Days4.2 (Base 18.3)
Growing Degree Days12.5 (Base 10)
Averaged from 23 records on 3 February, 2013
WEATHER CONDITIONS BREAKOUT
WIND DIRECTION BREAKOUT
WEATHER BY HOUR - 3 FEBRUARY, 2013
[ °F ]   °C
Local TimeTemperatureDewpointHumidityBarometerVisibilityWind DirectionWind SpeedGust SpeedPrecipitationEventsConditions
1:44 AM21 °C20 °C94 %1017.9 hPa11.3 kmCalmMostly Cloudy
2:46 AM20 °C20 °C100 %1017.3 hPa11.3 kmNNW (330°)9.3 km/hMostly Cloudy
3:45 AM19 °C19 °C100 %1017.9 hPa11.3 kmCalmMostly Cloudy
4:44 AM19 °C19 °C100 %1018.3 hPa11.3 kmNW (320°)9.3 km/hMostly Cloudy
5:43 AM21 °C20 °C94 %1017.9 hPa11.3 kmCalmScattered Clouds
6:42 AM21 °C20 °C94 %1019.6 hPa11.3 kmNNW (330°)9.3 km/hScattered Clouds
7:45 AM22 °C21 °C94 %1020.3 hPa11.3 kmNNE (30°)7.4 km/hMostly Cloudy
8:40 AM22 °C21 °C94 %1021 hPa8 kmNNW (330°)11.1 km/hMostly Cloudy
9:44 AM24 °C19 °C73 %1021.3 hPa11.3 kmNE (40°)18.5 km/hMostly Cloudy
10:44 AM25 °C17 °C61 %1020.7 hPa11.3 kmNNE (30°)24.1 km/hScattered Clouds
11:44 AM26 °C16 °C54 %1020.3 hPa11.3 kmNE (50°)22.2 km/hMostly Cloudy
12:40 PM26 °C16 °C54 %1019.6 hPa11.3 kmNNE (30°)18.5 km/hMostly Cloudy
1:42 PM25 °C15 °C54 %1019 hPa11.3 kmNE (40°)14.8 km/h33.3 km/hMostly Cloudy
2:41 PM24 °C15 °C57 %1018.3 hPa11.3 kmNE (40°)13 km/hMostly Cloudy
3:43 PM24 °C15 °C57 %1018.3 hPa11.3 kmNE (50°)14.8 km/hMostly Cloudy
4:41 PM24 °C15 °C57 %1018.6 hPa11.3 kmNNE (30°)11.1 km/hMostly Cloudy
5:43 PM22 °C15 °C64 %1018.3 hPa11.3 kmNNE (30°)9.3 km/hScattered Clouds
6:42 PM22 °C15 °C64 %1018.6 hPa11.3 kmNE (40°)7.4 km/hScattered Clouds
7:43 PM22 °C15 °C64 %1019 hPa11.3 kmNE (50°)7.4 km/hPartly Cloudy
8:42 PM21 °C15 °C68 %1019.3 hPa11.3 kmNE (50°)5.6 km/hScattered Clouds
9:45 PM21 °C15 °C68 %1019 hPa11.3 kmNE (50°)5.6 km/hScattered Clouds
10:48 PM21 °C15 °C68 %1018.6 hPa11.3 kmNE (40°)9.3 km/hPartly Cloudy
11:44 PM20 °C15 °C73 %1017.9 hPa11.3 kmNorth (360°)5.6 km/hPartly Cloudy
Hourly data recorded from MMUN, located 0 kilometers away from Cancun, Quintana Roo







STORIES FROM OUR PARTNERS